| time (UTC) | temp F | wind direction | speed MPH | gust MPH | rain 1hr in | rain 24hr in | rain mn in | humidity % | barometer mb |
| 20260906205346 | 70 | 46 | 0.0 | 0.0 | 0.00 | 0.11 | 0.11 | 67 | 1018.7 |
| 20260906204346 | 70 | 46 | 0.0 | 0.0 | 0.00 | 0.11 | 0.11 | 69 | 1018.6 |
| 20260906203344 | 69 | 46 | 0.0 | 1.0 | 0.00 | 0.11 | 0.11 | 69 | 1018.6 |
| 20260906202344 | 69 | 46 | 0.0 | 1.0 | 0.00 | 0.11 | 0.11 | 70 | 1018.6 |
| 20260906201343 | 69 | 45 | 0.0 | 0.0 | 0.00 | 0.11 | 0.11 | 70 | 1018.6 |
| 20260906200832 | 69 | 45 | 0.0 | 0.0 | 0.00 | 0.11 | 0.11 | 70 | 1018.7 |
| 20260906195342 | 69 | 45 | 0.0 | 0.0 | 0.00 | 0.11 | 0.11 | 71 | 1018.7 |
| 20260906194342 | 68 | 45 | 0.0 | 0.0 | 0.00 | 0.11 | 0.11 | 73 | 1018.7 |
| 20260906193342 | 68 | 45 | 0.0 | 0.0 | 0.00 | 0.11 | 0.11 | 72 | 1018.9 |
| 20260906192342 | 68 | 45 | 0.0 | 0.0 | 0.00 | 0.11 | 0.11 | 72 | 1018.8 |
| 20260906191342 | 68 | 45 | 0.0 | 1.0 | 0.00 | 0.11 | 0.11 | 71 | 1018.9 |
| 20260906190336 | 68 | 45 | 0.0 | 1.0 | 0.00 | 0.11 | 0.11 | 72 | 1018.8 |
| 20260906185337 | 68 | 45 | 0.0 | 1.0 | 0.00 | 0.11 | 0.11 | 73 | 1018.8 |
| 20260906184336 | 68 | 47 | 0.0 | 1.0 | 0.00 | 0.11 | 0.11 | 73 | 1018.9 |
| 20260906183336 | 68 | 47 | 0.0 | 0.0 | 0.00 | 0.11 | 0.11 | 72 | 1018.9 |
| 20260906182334 | 67 | 47 | 0.0 | 4.0 | 0.00 | 0.11 | 0.11 | 74 | 1018.9 |
| 20260906181726 | 69 | 47 | 0.0 | 4.0 | 0.00 | 0.11 | 0.11 | 73 | 1018.9 |
| 20260906181503 | 68 | 47 | 0.0 | 1.0 | 0.00 | 0.11 | 0.11 | 73 | 1018.9 |
| 20260906175332 | 68 | 46 | 0.0 | 2.0 | 0.00 | 0.11 | 0.11 | 73 | 1018.9 |
| 20260906174329 | 67 | 45 | 0.0 | 1.0 | 0.00 | 0.11 | 0.11 | 76 | 1018.9 |
| 20260906173807 | 68 | 46 | 0.0 | 0.0 | 0.00 | 0.11 | 0.11 | 74 | 1018.9 |
| 20260906172811 | 68 | 46 | 0.0 | 1.0 | 0.00 | 0.11 | 0.11 | 78 | 1019.0 |
| 20260906171329 | 67 | 46 | 0.0 | 1.0 | 0.00 | 0.11 | 0.11 | 77 | 1019.1 |
| 20260906170330 | 67 | 46 | 0.0 | 1.0 | 0.00 | 0.11 | 0.11 | 78 | 1019.0 |
| 20260906165330 | 68 | 46 | 0.0 | 1.0 | 0.00 | 0.11 | 0.11 | 74 | 1018.9 |
| 20260906164329 | 68 | 46 | 0.0 | 4.0 | 0.00 | 0.11 | 0.11 | 76 | 1018.8 |
| 20260906163330 | 68 | 42 | 0.0 | 3.0 | 0.00 | 0.11 | 0.11 | 75 | 1018.8 |
| 20260906162330 | 67 | 49 | 0.0 | 4.0 | 0.00 | 0.11 | 0.11 | 78 | 1018.8 |
| 20260906161330 | 68 | 50 | 0.0 | 1.0 | 0.00 | 0.11 | 0.11 | 79 | 1018.8 |
| 20260906160329 | 68 | 49 | 0.0 | 1.0 | 0.00 | 0.11 | 0.11 | 79 | 1018.9 |
| 20260906155329 | 68 | 51 | 0.0 | 1.0 | 0.00 | 0.11 | 0.11 | 76 | 1018.9 |
| 20260906154330 | 69 | 50 | 0.0 | 0.0 | 0.00 | 0.11 | 0.11 | 73 | 1018.8 |
| 20260906153329 | 68 | 51 | 0.0 | 0.0 | 0.00 | 0.11 | 0.11 | 77 | 1018.7 |
| 20260906152329 | 67 | 50 | 0.0 | 2.0 | 0.11 | 0.11 | 0.11 | 77 | 1018.7 |
| 20260906151804 | 67 | 51 | 0.0 | 3.0 | 0.11 | 0.11 | 0.11 | 77 | 1018.6 |
| 20260906150328 | 68 | 49 | 0.0 | 1.0 | 0.11 | 0.11 | 0.11 | 77 | 1018.6 |
| 20260906145328 | 68 | 52 | 0.0 | 5.0 | 0.11 | 0.11 | 0.11 | 79 | 1018.6 |
| 20260906144328 | 67 | 34 | 0.0 | 2.0 | 0.11 | 0.11 | 0.11 | 80 | 1018.5 |
| 20260906143815 | 67 | 33 | 0.0 | 6.0 | 0.11 | 0.11 | 0.11 | 80 | 1018.6 |
| 20260906142807 | 67 | 24 | 0.0 | 4.0 | 0.00 | 0.00 | 0.00 | 78 | 1018.6 |
| 20260906141329 | 67 | 23 | 0.0 | 5.0 | 0.00 | 0.00 | 0.00 | 78 | 1018.3 |
| 20260906140821 | 67 | 13 | 0.0 | 2.0 | 0.00 | 0.00 | 0.00 | 81 | 1018.2 |
| 20260906135325 | 67 | 0 | 0.0 | 2.0 | 0.00 | 0.00 | 0.00 | 83 | 1018.0 |
| 20260906134323 | 66 | 28 | 0.0 | 2.0 | 0.00 | 0.00 | 0.00 | 84 | 1018.0 |
| 20260906133813 | 66 | 33 | 0.0 | 3.0 | 0.00 | 0.00 | 0.00 | 84 | 1018.0 |
| 20260906132319 | 66 | 32 | 0.0 | 1.0 | 0.00 | 0.00 | 0.00 | 85 | 1018.0 |
| 20260906132238 | 66 | 351 | 0.0 | 1.0 | 0.00 | 0.00 | 0.00 | 85 | 1017.9 |
| 20260906130809 | 66 | 351 | 0.0 | 6.0 | 0.00 | 0.00 | 0.00 | 86 | 1017.8 |
| 20260906125758 | 66 | 326 | 0.0 | 1.0 | 0.00 | 0.00 | 0.00 | 88 | 1017.7 |
| 20260906124319 | 65 | 326 | 0.0 | 0.0 | 0.00 | 0.00 | 0.00 | 89 | 1017.6 |
| 20260906123318 | 65 | 325 | 0.0 | 1.0 | 0.00 | 0.00 | 0.00 | 90 | 1017.6 |
| 20260906122317 | 65 | 30 | 0.0 | 3.0 | 0.00 | 0.00 | 0.00 | 90 | 1017.5 |
| 20260906121311 | 64 | 28 | 0.0 | 4.0 | 0.00 | 0.00 | 0.00 | 88 | 1017.5 |
| 20260906120311 | 64 | 302 | 0.0 | 1.0 | 0.00 | 0.00 | 0.00 | 87 | 1017.3 |
| 20260906115311 | 62 | 32 | 0.0 | 0.0 | 0.00 | 0.00 | 0.00 | 88 | 1017.2 |
| 20260906114311 | 60 | 0 | 0.0 | 0.0 | 0.00 | 0.00 | 0.00 | 89 | 1016.9 |
| 20260906113311 | 60 | 300 | 0.0 | 0.0 | 0.00 | 0.00 | 0.00 | 89 | 1016.8 |
| 20260906112310 | 60 | 301 | 0.0 | 0.0 | 0.00 | 0.00 | 0.00 | 90 | 1016.8 |
| 20260906111311 | 59 | 301 | 0.0 | 0.0 | 0.00 | 0.00 | 0.00 | 90 | 1016.7 |
| 20260906110309 | 59 | 297 | 0.0 | 0.0 | 0.00 | 0.00 | 0.00 | 90 | 1016.6 |
| 20260906105756 | 59 | 300 | 0.0 | 0.0 | 0.00 | 0.00 | 0.00 | 90 | 1016.5 |
| 20260906104748 | 59 | 300 | 0.0 | 0.0 | 0.00 | 0.00 | 0.00 | 90 | 1016.4 |
| 20260906103309 | 59 | 301 | 0.0 | 0.0 | 0.00 | 0.00 | 0.00 | 90 | 1016.3 |
| 20260906102308 | 59 | 301 | 0.0 | 0.0 | 0.00 | 0.00 | 0.00 | 90 | 1016.2 |
| 20260906101311 | 59 | 301 | 0.0 | 0.0 | 0.00 | 0.00 | 0.00 | 90 | 1016.1 |
| 20260906100304 | 59 | 301 | 0.0 | 0.0 | 0.00 | 0.00 | 0.00 | 90 | 1015.9 |
| 20260906095306 | 59 | 301 | 0.0 | 0.0 | 0.00 | 0.00 | 0.00 | 90 | 1015.9 |
| 20260906094742 | 59 | 301 | 0.0 | 0.0 | 0.00 | 0.00 | 0.00 | 90 | 1015.8 |
| 20260906093304 | 59 | 301 | 0.0 | 0.0 | 0.00 | 0.00 | 0.00 | 90 | 1015.7 |
| 20260906092753 | 59 | 301 | 0.0 | 0.0 | 0.00 | 0.00 | 0.00 | 90 | 1015.7 |
| 20260906091305 | 59 | 301 | 0.0 | 0.0 | 0.00 | 0.00 | 0.00 | 90 | 1015.5 |
| 20260906090305 | 59 | 301 | 0.0 | 0.0 | 0.00 | 0.00 | 0.00 | 90 | 1015.5 |
| 20260906085306 | 60 | 301 | 0.0 | 0.0 | 0.00 | 0.00 | 0.00 | 90 | 1015.3 |
| 20260906084739 | 60 | 301 | 0.0 | 0.0 | 0.00 | 0.00 | 0.00 | 90 | 1015.1 |
| 20260906083304 | 60 | 297 | 0.0 | 0.0 | 0.00 | 0.00 | 0.00 | 90 | 1015.1 |
| 20260906082306 | 60 | 300 | 0.0 | 0.0 | 0.00 | 0.00 | 0.00 | 91 | 1015.0 |
| 20260906081304 | 60 | 301 | 0.0 | 0.0 | 0.00 | 0.00 | 0.00 | 91 | 1014.9 |
| 20260906080304 | 60 | 301 | 0.0 | 0.0 | 0.00 | 0.00 | 0.00 | 90 | 1015.0 |
| 20260906075306 | 60 | 301 | 0.0 | 0.0 | 0.00 | 0.00 | 0.00 | 90 | 1015.0 |
| 20260906074304 | 61 | 0 | 0.0 | 0.0 | 0.00 | 0.00 | 0.00 | 91 | 1014.9 |
| 20260906073304 | 61 | 0 | 0.0 | 0.0 | 0.00 | 0.00 | 0.00 | 90 | 1014.9 |
| 20260906072306 | 61 | 0 | 0.0 | 0.0 | 0.00 | 0.00 | 0.00 | 90 | 1014.7 |
| 20260906071738 | 61 | 0 | 0.0 | 0.0 | 0.00 | 0.00 | 0.00 | 91 | 1014.8 |
| 20260906070752 | 62 | 0 | 0.0 | 0.0 | 0.00 | 0.00 | 0.00 | 90 | 1014.9 |
| 20260906065305 | 62 | 0 | 0.0 | 0.0 | 0.00 | 0.00 | 0.00 | 90 | 1014.8 |
| 20260906064304 | 62 | 0 | 0.0 | 0.0 | 0.00 | 0.00 | 0.00 | 90 | 1014.9 |
| 20260906063304 | 62 | 0 | 0.0 | 0.0 | 0.00 | 0.00 | 0.00 | 91 | 1015.0 |
| 20260906062306 | 62 | 0 | 0.0 | 0.0 | 0.00 | 0.00 | 0.00 | 91 | 1014.8 |
| 20260906061303 | 62 | 0 | 0.0 | 0.0 | 0.00 | 0.00 | 0.00 | 91 | 1014.9 |
| 20260906060304 | 62 | 0 | 0.0 | 0.0 | 0.00 | 0.00 | 0.00 | 90 | 1014.9 |
| 20260906060230 | 63 | 0 | 0.0 | 0.0 | 0.00 | 0.00 | 0.00 | 91 | 1014.9 |
| 20260906054304 | 63 | 0 | 0.0 | 0.0 | 0.00 | 0.00 | 0.00 | 90 | 1014.9 |
| 20260906053304 | 63 | 0 | 0.0 | 0.0 | 0.00 | 0.00 | 0.00 | 90 | 1015.0 |
| 20260906052739 | 63 | 0 | 0.0 | 0.0 | 0.00 | 0.00 | 0.00 | 90 | 1014.9 |
| 20260906051304 | 63 | 0 | 0.0 | 0.0 | 0.00 | 0.00 | 0.00 | 90 | 1014.8 |
| 20260906050304 | 63 | 0 | 0.0 | 0.0 | 0.00 | 0.00 | 0.00 | 90 | 1014.9 |
| 20260906045306 | 63 | 0 | 0.0 | 0.0 | 0.00 | 0.00 | 0.00 | 90 | 1014.9 |
| 20260906044303 | 63 | 0 | 0.0 | 0.0 | 0.00 | 0.00 | 0.00 | 90 | 1014.8 |
| 20260906043305 | 63 | 0 | 0.0 | 0.0 | 0.00 | 0.00 | 0.00 | 90 | 1014.7 |
| 20260906042306 | 63 | 0 | 0.0 | 0.0 | 0.00 | 0.00 | 0.00 | 90 | 1014.7 |
| 20260906041303 | 63 | 0 | 0.0 | 0.0 | 0.00 | 0.00 | 0.00 | 90 | 1014.7 |
| 20260906040302 | 63 | 0 | 0.0 | 0.0 | 0.00 | 0.00 | 0.00 | 90 | 1014.5 |
| 20260906035736 | 63 | 0 | 0.0 | 0.0 | 0.00 | 0.00 | 0.00 | 90 | 1014.6 |
| 20260906034255 | 63 | 0 | 0.0 | 0.0 | 0.00 | 0.00 | 0.00 | 90 | 1014.6 |
| 20260906033253 | 64 | 0 | 0.0 | 0.0 | 0.00 | 0.00 | 0.00 | 90 | 1014.5 |
| 20260906032724 | 64 | 0 | 0.0 | 0.0 | 0.00 | 0.00 | 0.00 | 90 | 1014.4 |
| 20260906031246 | 64 | 0 | 0.0 | 0.0 | 0.00 | 0.00 | 0.00 | 90 | 1014.5 |
| 20260906030245 | 64 | 0 | 0.0 | 0.0 | 0.00 | 0.00 | 0.00 | 90 | 1014.4 |
| 20260906030159 | 64 | 0 | 0.0 | 0.0 | 0.00 | 0.00 | 0.00 | 90 | 1014.4 |
| 20260906024240 | 64 | 0 | 0.0 | 0.0 | 0.00 | 0.00 | 0.00 | 90 | 1014.4 |
| 20260906023241 | 64 | 0 | 0.0 | 0.0 | 0.00 | 0.00 | 0.00 | 89 | 1014.3 |
| 20260906022723 | 65 | 0 | 0.0 | 0.0 | 0.00 | 0.00 | 0.00 | 89 | 1014.3 |
| 20260906022156 | 65 | 0 | 0.0 | 0.0 | 0.00 | 0.00 | 0.00 | 89 | 1014.2 |
| 20260906020236 | 65 | 0 | 0.0 | 0.0 | 0.00 | 0.00 | 0.00 | 88 | 1014.2 |
| 20260906015237 | 66 | 0 | 0.0 | 0.0 | 0.00 | 0.00 | 0.00 | 88 | 1014.2 |
| 20260906014237 | 66 | 0 | 0.0 | 0.0 | 0.00 | 0.00 | 0.00 | 87 | 1014.1 |
| 20260906013238 | 67 | 0 | 0.0 | 0.0 | 0.00 | 0.00 | 0.00 | 87 | 1014.1 |
| 20260906012234 | 67 | 0 | 0.0 | 0.0 | 0.00 | 0.00 | 0.00 | 86 | 1013.9 |
| 20260906011232 | 68 | 0 | 0.0 | 0.0 | 0.00 | 0.00 | 0.00 | 85 | 1014.1 |
| 20260906010233 | 68 | 0 | 0.0 | 0.0 | 0.00 | 0.00 | 0.00 | 85 | 1014.2 |
| 20260906005232 | 68 | 0 | 0.0 | 0.0 | 0.00 | 0.00 | 0.00 | 84 | 1014.1 |
| 20260906004710 | 68 | 0 | 0.0 | 0.0 | 0.00 | 0.00 | 0.00 | 83 | 1014.0 |
| 20260906003232 | 68 | 0 | 0.0 | 0.0 | 0.00 | 0.00 | 0.00 | 82 | 1013.9 |
| 20260906002233 | 69 | 0 | 0.0 | 0.0 | 0.00 | 0.00 | 0.00 | 82 | 1013.9 |
| 20260906001231 | 69 | 0 | 0.0 | 0.0 | 0.00 | 0.00 | 0.00 | 82 | 1013.9 |
| 20260906000229 | 69 | 0 | 0.0 | 0.0 | 0.00 | 0.00 | 0.00 | 81 | 1013.9 |
| 20260905235230 | 69 | 0 | 0.0 | 0.0 | 0.00 | 0.00 | 0.00 | 80 | 1013.9 |
| 20260905234707 | 69 | 0 | 0.0 | 0.0 | 0.00 | 0.00 | 0.00 | 80 | 1014.0 |
| 20260905233226 | 70 | 0 | 0.0 | 0.0 | 0.00 | 0.00 | 0.00 | 79 | 1014.0 |
| 20260905232224 | 70 | 0 | 0.0 | 0.0 | 0.00 | 0.00 | 0.00 | 78 | 1013.9 |
| 20260905231224 | 70 | 0 | 0.0 | 0.0 | 0.00 | 0.00 | 0.00 | 76 | 1014.0 |
| 20260905230707 | 71 | 298 | 0.0 | 0.0 | 0.00 | 0.00 | 0.00 | 76 | 1014.0 |
| 20260905225657 | 71 | 0 | 0.0 | 0.0 | 0.00 | 0.00 | 0.00 | 74 | 1014.1 |
| 20260905224220 | 71 | 0 | 0.0 | 0.0 | 0.00 | 0.00 | 0.00 | 74 | 1014.0 |
| 20260905223216 | 72 | 302 | 0.0 | 0.0 | 0.00 | 0.00 | 0.00 | 72 | 1014.1 |
| 20260905222216 | 72 | 302 | 0.0 | 0.0 | 0.00 | 0.00 | 0.00 | 71 | 1014.0 |
| 20260905221704 | 72 | 302 | 0.0 | 0.0 | 0.00 | 0.00 | 0.00 | 70 | 1013.9 |
| 20260905220216 | 72 | 302 | 0.0 | 0.0 | 0.00 | 0.00 | 0.00 | 69 | 1013.7 |
| 20260905215215 | 73 | 302 | 0.0 | 0.0 | 0.00 | 0.00 | 0.00 | 69 | 1013.8 |
| 20260905214656 | 73 | 302 | 0.0 | 0.0 | 0.00 | 0.00 | 0.00 | 68 | 1013.6 |
| 20260905213214 | 74 | 302 | 0.0 | 0.0 | 0.00 | 0.00 | 0.00 | 68 | 1013.6 |
| 20260905212212 | 74 | 302 | 0.0 | 1.0 | 0.00 | 0.00 | 0.00 | 67 | 1013.6 |
| 20260905211655 | 74 | 297 | 0.0 | 1.0 | 0.00 | 0.00 | 0.00 | 66 | 1013.4 |
| 20260905210204 | 74 | 297 | 0.0 | 0.0 | 0.00 | 0.00 | 0.00 | 66 | 1013.4 |